www.pogodaiklimat.ru

Погода и климат >> Архив погоды >> Нигерия >> Cano


ПОГОДА в Cano

  • Прогноз погоды в Cano
  • Монитор погоды в Cano
  • Климат города

АРХИВ ПОГОДЫ в Cano

Время (UTC), дата Ветер
(напр.,м/с)
 
Видим.   Явления Облачность Т
(С)
Тd
(С)
f
(%)
Тe
(С)
Тes
(С)
Комфортность P
(гПа)
Po
(гПа)
Тmin
(С)
Tmax
(С)
R
(мм)
R24
(мм)
S
(см)
09 6.12 В 6 800 м пыль 8 баллов +23.0 +5.1 31 +23 +24 комфорт 1018.8 1064.0
12 6.12 СВ 7 1000 м пыль 8/0
[Cs]
+27.8 +5.7 25 +27 +30 жарко 1015.2 1061.4
18 6.12 СВ 2 4000 м мгла 8/0
[Cs]
+23.4 +9.0 40 +25 +25 комфорт 1014.4 1059.9 +29.6
21 6.12 В 1 8000 м мгла 8/0
[Cs]
+19.5 +8.2 48 +21 +21 комфорт 1016.9 1061.5
00 7.12 С 1 10 км 8/0
[Cs]
+18.4 +7.4 49 +20 +20 1016.6 1061.1
09 7.12 СВ 6 <50 м мгла 8/0
[Cs]
+21.5 +5.9 36 +22 +25 комфорт 1018.7 1063.6
12 7.12 СВ 6 >70 км мгла 8/0
[Cs]
+26.7 +5.8 26 +26 +31 жарко 1015.4 1061.4
15 7.12 В 4 1000 м пыль 8/0
[Cs]
+27.5 +4.5 23 +26 +29 жарко 1013.5 1059.8
21 7.12 штиль 0 2000 м мгла 8/0
[Cs]
+19.0 +6.7 45 +19 +19 1018.1 1062.6
00 8.12 СЗ 1 2500 м мгла 8/0
[Cs]
+15.4 +7.4 59 +16 +16 1018.2 1062.0
06 8.12 З 1 1200 м мгла 8/0
[Cs]
+13.4 +6.1 61 +14 +14 1019.3 1062.7 +12.4
18 8.12 С 2 5000 м мгла 8/0
[Cs]
+23.0 +7.4 37 +24 +24 комфорт 1016.0 1061.3 +29.8
00 9.12 штиль 0 10 км 8/0
[Cs]
+15.5 +7.5 59 +15 +15 1019.3 1063.1
03 9.12 СЗ 1 10 км 8/0
[Cs]
+13.3 +7.6 68 +14 +14 1019.6 1062.9
06 9.12 С 2 4000 м дым 8/0
[Cs]
+12.0 +6.8 70 +11 +12 1021.9 1064.8 +11.8
09 9.12 СВ 7 7000 м мгла 8/0
[Cs]
+22.7 +5.5 33 +23 +26 комфорт 1021.2 1066.2
12 9.12 СВ 6 10 км 8/0
[Cs]
+28.2 +6.7 26 +27 +32 жарко 1018.1 1064.2
15 9.12 В 5 10 км 8/0
[]
+28.9 +6.2 24 +28 +29 жарко 1015.5 1061.9
03 10.12 СВ 2 10 км 8/0
[Cs]
+14.7 +5.2 53 +15 +15 1020.6 1064.1
06 10.12 штиль 0 10 км 8/0 840 м
[Ac trans Cs]
+14.2 +3.7 49 +14 +14 1022.0 1065.1 +13.5
15 10.12 СВ 5 10 км 8/0
[As trans Cs]
+28.6 +5.6 23 +27 +29 жарко 1015.3 1061.7
21 10.12 С 1 8000 м 8/8 240 м
[]
+17.0 +8.2 56 +19 +19 1064.2
06 11.12 СВ 3 10 км 8/0
[]
+14.2 +4.5 52 +13 +13 1020.9 1064.1
12 11.12 В 6 3000 м мгла 8/0
[As trans Cs]
+26.9 +5.0 25 +26 +29 жарко 1017.7 1063.6
18 11.12 СВ 2 8000 м мгла 8/0
[Cs]
+27.0 +2.0 20 +25 +25 комфорт 1017.3 1063.3 +28.7
00 12.12 С 1 10 км 8/0
[Cs]
+15.2 +8.5 64 +16 +16 1020.2 1036.9
06 12.12 В 3 8000 м мгла 8/0
[]
+14.3 +4.1 50 +14 +14 1021.1 1064.5 +11.3
09 12.12 В 7 4000 м мгла 8/0
[Cs]
+22.8 +2.2 26 +22 +24 комфорт 1020.8 1065.8
12 12.12 В 5 8000 м мгла 8/0
[Cs]
+28.0 +4.8 23 +27 +34 жарко 1017.3 1063.5
15 12.12 СВ 6 10 км 8/0
[Cs]
+28.7 +3.1 19 +27 +28 жарко 1015.2 1061.6
18 12.12 С 2 8000 м мгла 8/0
[Cs]
+22.5 +5.5 33 +23 +23 комфорт 1017.6 1062.8

 

Местоположение метеостанции Cano (Нигерия): широта 12.05 долгота 8.53 высота над уровнем моря 476 м.

В архиве по умолчанию представлена погода в Cano за последнюю неделю. Архивные данные за месяц целиком и за предыдущие месяцы, начиная с января 2011 года, Вы можете получить, выбрав интересующий диапазон дат из раскрывающегося списка и нажав кнопку "Ввод!".


*Определитесь, кто Вы:
робот инопланетянин человек

Внимание! Время в таблицах - всемирное. Для получения местного времени необходимо прибавить поправку, которая в Cano равна 3 ч.

Смотрите также архив погоды в соседних городах и на ближайших метеорологических станциях:

Погода в Magaria (Нигер) (112 км)
Погода в Zinder (Нигер) (199 км)
Погода в Maradi (Нигер) (223 км)
Погода в Goure (Нигер) (288 км)
Погода в Abuja (Нигерия) (353 км)
Погода в Maine-Soroa (Нигер) (397 км)
Погода в Birni-Nkonni (Нигер) (405 км)
Погода в Bida (Нигерия) (428 км)
Погода в Yelwa (Нигерия) (432 км)
Погода в Tahoua (Нигер) (476 км)

Пояснения к столбцам:

Ветер - указаны скорость ветра в м/с - средняя за 10 мин, порывы в срок и между сроками (в фигурных скобках) и направление, откуда дует ветер: С - северный, СВ - северо-восточный, В - восточный, ЮВ - юго-восточный, Ю - южный, ЮЗ - юго-западный, З - западный, СЗ - северо-западный.
Видимость - горизонтальная дальность видимости в метрах или километрах. При видимости от 1 до 10 км при отсутствии осадков обычно наблюдается дымка, при ухудшении видимости до 1 км и менее - туман. В сухую погоду видимость может ухудшаться дымом, пылью или мглою.
Явления - указаны атмосферные явления, наблюдавшиеся в срок или в последний час перед сроком; фигурными скобками обозначены явления, наблюдавшиеся между сроками (за 1-3 часа до срока); квадратными скобками обозначены град или гололедные отложения с указанием их диаметра в мм.
Облачность - указаны через наклонную черту общая и нижняя облачность в баллах и высота нижней границы облаков в метрах; квадратными скобками обозначены формы облаков: Ci - перистые, Cs - перисто-слоистые, Cc - перисто-кучевые, Ac - высококучевые, As - высокослоистые, Sc - слоисто-кучевые, Ns - слоисто-дождевые, Cu - кучевые, Cb - кучево-дождевые. Подробнее классификацию облаков см. в Атласе облаков (PDF).
T - Температура воздуха - температура, измеренная на высоте 2 м над землей.
Td - Температура точки росы - температура, при понижении до которой содержащийся в воздухе водяной пар достигнет насыщения.
f - Относительная влажность воздуха - влажноcть воздуха, измеренная на высоте 2 м над землей.
Te - Эффективная температура - температура, которую ощущает одетый по сезону человек в тени. Характеристика душности погоды. При расчете учитывается влияние влажности воздуха и скорости ветра на теплоощущения человека.
Tes - Эффективная температура на солнце - температура, которую ощущает человек, с поправкой на солнечный нагрев. Характеристика знойности погоды. Зависит от высоты солнца над горизонтом, облачности и скорости ветра. Ночью, в пасмурную погоду, а также при ветре 12 м/с и более поправка равна нулю.
P - Атмосферное давление - приведенное к уровню моря атмосферное давление.
Po - Атмосферное давление - измеренное на уровне метеостанции атмосферное давление.
Tmin - Минимальная температура - минимум температуры воздуха на высоте 2 м над землей.
Tmax - Максимальная температура - максимум температуры воздуха на высоте 2 м над землей.
R - Количество осадков - Количество выпавших осадков за период времени, мм. При наведении курсора мыши на число - период времени, за который выпало указанное количество осадков.
R24 - Количество осадков - Количество выпавших осадков за 24 часа, мм.
S - Снежный покров - Высота снежного покрова, см. При наведении курсора мыши на число - состояние снежного покрова и степень покрытия местности в баллах.